Creek Data

    Home     View Charts     View Raw Data     Messages

ID Distance Battery Voltage Battery Current Internal Temp Internal Humidity External Temp Solar Input rssi snr Time Stamp Record
63919 14.7 4.03 0 53 48 48 5.1 -73 9 01/20/2026 12:15 PM 46667
63918 14.6 3.83 0 51 48 47 5.1 -77 8 01/20/2026 11:45 AM 46665
63917 14.6 3.83 0 51 47 46 5.1 -77 8 01/20/2026 11:30 AM 46664
63916 14.6 3.83 0 51 47 47 5.1 -77 6 01/20/2026 11:15 AM 46663
63915 14.6 3.84 0 50 47 46 5.1 -77 7 01/20/2026 11:00 AM 46662
63914 14.6 3.84 0 48 48 46 5.1 -77 8 01/20/2026 10:45 AM 46661
63913 14.6 4.02 0 48 48 46 5.1 -76 7 01/20/2026 10:30 AM 46660
63912 14.6 3.84 0 47 47 45 5.1 -77 7 01/20/2026 10:15 AM 46659
63911 14.6 3.84 0 47 48 45 5.1 -77 7 01/20/2026 10:00 AM 46658
63910 14.5 3.98 39 46 48 44 4.5 -77 7 01/20/2026 09:45 AM 46657
63909 14.5 3.97 12 46 48 44 4.5 -77 8 01/20/2026 09:30 AM 46656
63908 14.5 3.89 24 45 48 44 4.5 -78 7 01/20/2026 09:15 AM 46655
63907 14.5 4.00 0 45 48 44 4.5 -78 8 01/20/2026 09:00 AM 46654
63906 14.5 3.84 16 45 48 44 4.5 -77 8 01/20/2026 08:45 AM 46653
63905 14.5 3.92 8 44 48 44 4.5 -77 8 01/20/2026 08:30 AM 46652
63904 14.5 3.90 0 44 48 44 4.5 -77 7 01/20/2026 08:15 AM 46651
63903 14.5 3.73 0 43 49 43 4.5 -77 7 01/20/2026 08:00 AM 46650
63902 14.5 3.85 -5 43 49 43 4.5 -78 7 01/20/2026 07:45 AM 46649
63901 14.5 3.69 -8 43 49 43 1.7 -77 8 01/20/2026 07:30 AM 46648
63900 14.5 3.70 -5 43 49 43 1.1 -77 8 01/20/2026 07:15 AM 46647
63899 14.5 3.70 -5 42 49 43 0.2 -77 8 01/20/2026 07:00 AM 46646
63898 14.5 3.70 -5 42 49 43 0 -77 8 01/20/2026 06:45 AM 46645
63897 14.5 3.85 -5 42 49 42 0 -77 5 01/20/2026 06:30 AM 46644
63896 14.5 3.71 -5 42 49 42 0.1 -77 8 01/20/2026 06:15 AM 46643
63895 14.5 3.70 -5 42 49 42 0 -78 8 01/20/2026 06:00 AM 46642